Tracking 35331 objects as of 14-Sep-2026
HD Live streaming from Space Station
objects crossing your sky now

SL-4 R/B


SL-4 R/B is no longer on orbit


NORAD ID: 15695
Int'l Code: 1985-036B
Launch date: May 15, 1985
Source: Commonwealth of Independent States (former USSR) (CIS)
Launch site: PLESETSK MISSILE AND SPACE COMPLEX (PKMTR)
Decay date: 1985-05-28

Note: This is a ROCKET BODY
Your satellite tracking list
Your tracking list is empty




NASA's NSSDC Master Catalog

Two Line Element Set (TLE):
1 15695U 85036  B 85148.48265617  .08759627 +92461-5 +31253-3 0  9991
2 15695 072.8390 034.5018 0019814 050.8586 309.5519 16.42107885002098
Source of the keplerian elements: AFSPC